Location: Newark
(35.6799°N, 139.7636°E)
Time: 10:58:45
(UTC+00:00)

Explorer 11/Cluster Stage 4 - Pass Details

Date: 18 December 2019
Orbit: 467 x 1259 km, 28.8° (Epoch: 29 January)

Event Time Altitude Azimuth Distance (km) Brightness Sun altitude
Rises 20:55:23 0° 235° (SW) 4,100 9.9 -10.0°
Reaches altitude 10° 20:58:25 10° 228° (SW) 3,188 9.4 -9.4°
Maximum altitude 21:05:50 39° 164° (SSE) 1,791 8.8 -8.0°
Drops below altitude 10° 21:13:09 10° 99° (E) 3,140 11.2 -6.7°
Sets 21:16:06 0° 92° (E) 4,033 11.7 -6.1°
